Location: Peterborough
(44.3091°N, 78.3197°W)
Time: 03:01:48
(UTC-04:00)

Tiros 1 - Pass Details

Date: 10 April 2023
Orbit: 627 x 661 km, 48.4° (Epoch: 09 June)

Event Time Altitude Azimuth Distance (km) Brightness Sun altitude
Rises 06:00:27 0° 292° (WNW) 2,984 - -7.4°
Exits shadow 06:00:51 - 292° (WNW) 2,826 10.0 -7.4°
Reaches altitude 10° 06:02:49 10° 289° (WNW) 2,073 9.3 -7.0°
Maximum altitude 06:07:31 57° 211° (SSW) 777 7.3 -6.2°
Drops below altitude 10° 06:12:12 10° 133° (SE) 2,069 10.2 -5.4°
Sets 06:14:34 0° 130° (SE) 2,978 11.1 -5.0°
